Weather History for Gunnison, CO

Change the Weather History Date:

Sunday, January 26, 2014

  Actual Average Record
Temperature  
Mean Temperature 12 °F -  
Max Temperature 28 °F 23 °F 35 °F (1997)
Min Temperature -5 °F 0 °F -16 °F (2004)
Degree Days  
Heating Degree Days 54    
Moisture  
Dew Point -1 °F    
Average Humidity 65    
Maximum Humidity 100    
Minimum Humidity 29    
Precipitation  
Precipitation 0.00 in - - ()
Sea Level Pressure  
Sea Level Pressure 30.11 in    
Wind  
Wind Speed 1 mph (NNE)    
Max Wind Speed 6 mph    
Max Gust Speed -    
Visibility 10 miles    
Events      
Averages and records for this station are not official NWS values.
T = Trace of Precipitation, MM = Missing Value Source: NWS Daily Summary

Daily Weather History Graph

Daily Weather History Graph

Search for Another Location

Airport:

Trip Planner

Search our weather history database for the weather conditions in past years. The results will help you decide how hot, cold, wet, or windy it might be!

Date:

Astronomy

Jan. 26, 2014 Rise Set
Actual Time 7:17 AM MST 5:23 PM MST
Civil Twilight 6:49 AM MST 5:51 PM MST
Nautical Twilight 6:17 AM MST 6:23 PM MST
Astronomical Twilight 5:46 AM MST 6:54 PM MST
Moon 2:58 AM MST (1/26) 1:15 PM MST (1/26)
Length of Visible Light 11h 01m
Length of Day
10h 05m
Waning Crescent, 23% of the Moon is Illuminated
Jan 26
Waning Crescent
Jan 30
New
Feb 6
First Quarter
Feb 14
Full
Feb 22
Last Quarter

Hourly Weather History & Observations

Time (MST) Temp. Windchill Dew Point Humidity Pressure Visibility Wind Dir Wind Speed Gust Speed Precip Events Conditions
12:15 AM 1.4 °F - -5.8 °F 72% 30.20 in 10.0 mi Calm Calm - N/A   Clear
12:35 AM 3.2 °F - 1.4 °F 92% 30.20 in 10.0 mi Calm Calm - N/A   Clear
12:55 AM 1.4 °F - -5.8 °F 72% 30.19 in 10.0 mi Calm Calm - N/A   Clear
1:15 AM -0.4 °F - -5.8 °F 78% 30.19 in 10.0 mi Calm Calm - N/A   Clear
1:35 AM -0.4 °F - -5.8 °F 78% 30.19 in 10.0 mi Calm Calm - N/A   Clear
1:55 AM -0.4 °F - -5.8 °F 78% 30.19 in 8.0 mi Calm Calm - N/A   Clear
2:15 AM -2.2 °F - -9.4 °F 71% 30.18 in 10.0 mi Calm Calm - N/A   Clear
2:35 AM -0.4 °F - -4.0 °F 85% 30.19 in 10.0 mi Calm Calm - N/A   Clear
2:55 AM -2.2 °F - -7.6 °F 78% 30.18 in 8.0 mi Calm Calm - N/A   Clear
3:15 AM -2.2 °F - -9.4 °F 71% 30.18 in 10.0 mi Calm Calm - N/A   Clear
3:35 AM -2.2 °F - -2.2 °F 100% 30.18 in 10.0 mi Calm Calm - N/A   Clear
3:55 AM -2.2 °F - -11.2 °F 66% 30.18 in 10.0 mi Calm Calm - N/A   Clear
4:15 AM -4.0 °F - -4.0 °F 100% 30.17 in 10.0 mi Calm Calm - N/A   Clear
4:35 AM -4.0 °F - -14.8 °F 60% 30.17 in 10.0 mi Calm Calm - N/A   Clear
4:55 AM -2.2 °F - -2.2 °F 100% 30.17 in 10.0 mi Calm Calm - N/A   Clear
5:15 AM -4.0 °F - -18.4 °F 50% 30.17 in 10.0 mi Calm Calm - N/A   Clear
5:35 AM -5.8 °F - -11.2 °F 77% 30.17 in 10.0 mi Calm Calm - N/A   Clear
5:55 AM -2.2 °F -10.4 °F -2.2 °F 100% 30.17 in 10.0 mi NE 3.5 mph - N/A   Clear
6:15 AM -5.8 °F - -16.6 °F 60% 30.17 in 10.0 mi Calm Calm - N/A   Clear
6:35 AM -5.8 °F - -18.4 °F 55% 30.17 in 10.0 mi Calm Calm - N/A   Clear
6:55 AM -5.8 °F - -20.2 °F 50% 30.17 in 10.0 mi Calm Calm - N/A   Clear
7:15 AM -5.8 °F - -16.6 °F 60% 30.18 in 10.0 mi Calm Calm - N/A   Clear
7:35 AM -4.0 °F - -14.8 °F 60% 30.18 in 10.0 mi Calm Calm - N/A   Clear
7:55 AM -5.8 °F - -22.0 °F 46% 30.18 in 10.0 mi Calm Calm - N/A   Clear
8:15 AM -5.8 °F - -13.0 °F 71% 30.18 in 10.0 mi Calm Calm - N/A   Clear
8:35 AM -4.0 °F - -29.2 °F 29% 30.19 in 10.0 mi Calm Calm - N/A   Clear
8:55 AM -4.0 °F - -29.2 °F 29% 30.18 in 10.0 mi Calm Calm - N/A   Clear
9:15 AM -0.4 °F - -20.2 °F 39% 30.18 in 10.0 mi Calm Calm - N/A   Clear
9:35 AM -0.4 °F - -20.2 °F 39% 30.18 in 10.0 mi Calm Calm - N/A   Clear
9:55 AM 3.2 °F - - N/A% 30.19 in 10.0 mi Calm Calm - N/A   Clear
10:15 AM 6.8 °F - -4.0 °F 61% 30.18 in 10.0 mi Calm Calm - N/A   Clear
10:35 AM 8.6 °F - -0.4 °F 67% 30.18 in 10.0 mi Calm Calm - N/A   Clear
10:55 AM 8.6 °F 2.0 °F 1.4 °F 73% 30.17 in 10.0 mi SE 3.5 mph - N/A   Clear
11:15 AM 10.4 °F - 3.2 °F 73% 30.16 in 10.0 mi Calm Calm - N/A   Clear
11:35 AM 14.0 °F - 6.8 °F 73% 30.14 in 10.0 mi Calm Calm - N/A   Clear
11:55 AM 15.8 °F - 6.8 °F 68% 30.12 in 10.0 mi Calm Calm - N/A   Clear
12:15 PM 17.6 °F - 6.8 °F 63% 30.10 in 10.0 mi Calm Calm - N/A   Clear
12:35 PM 19.4 °F 14.3 °F 8.6 °F 63% 30.09 in 10.0 mi East 3.5 mph - N/A   Clear
12:55 PM 19.4 °F - 8.6 °F 63% 30.08 in 10.0 mi Calm Calm - N/A   Clear
1:15 PM 21.2 °F - 10.4 °F 63% 30.07 in 10.0 mi Calm Calm - N/A   Clear
1:35 PM 21.2 °F - 10.4 °F 63% 30.06 in 10.0 mi Calm Calm - N/A   Clear
1:55 PM 24.8 °F - 10.4 °F 54% 30.05 in 10.0 mi Calm Calm - N/A   Clear
2:15 PM 26.6 °F - 10.4 °F 51% 30.04 in 10.0 mi Calm Calm - N/A   Clear
2:35 PM 26.6 °F - 10.4 °F 51% 30.04 in 10.0 mi Calm Calm - N/A   Clear
2:55 PM 26.6 °F 21.2 °F 10.4 °F 51% 30.04 in 10.0 mi NNW 4.6 mph - N/A   Clear
3:15 PM 28.4 °F - 12.2 °F 51% 30.03 in 10.0 mi Calm Calm - N/A   Clear
3:35 PM 28.4 °F 23.3 °F 10.4 °F 47% 30.02 in 10.0 mi NNE 4.6 mph - N/A   Clear
3:55 PM 28.4 °F 23.3 °F 12.2 °F 51% 30.02 in 10.0 mi North 4.6 mph - N/A   Clear
4:15 PM 28.4 °F 22.2 °F 12.2 °F 51% 30.02 in 10.0 mi North 5.8 mph - N/A   Clear
4:35 PM 28.4 °F 24.6 °F 12.2 °F 51% 30.01 in 10.0 mi North 3.5 mph - N/A   Clear
4:55 PM 28.4 °F 22.2 °F 10.4 °F 47% 30.01 in 10.0 mi North 5.8 mph - N/A   Clear
5:15 PM 26.6 °F 22.6 °F 10.4 °F 51% 30.01 in 10.0 mi North 3.5 mph - N/A   Clear
5:35 PM 26.6 °F - 10.4 °F 51% 30.01 in 10.0 mi Calm Calm - N/A   Clear
5:55 PM 23.0 °F - 8.6 °F 54% 30.02 in 10.0 mi Calm Calm - N/A   Clear
6:15 PM 21.2 °F 14.9 °F 8.6 °F 58% 30.03 in 10.0 mi North 4.6 mph - N/A   Clear
6:35 PM 19.4 °F - 6.8 °F 58% 30.04 in 10.0 mi Calm Calm - N/A   Clear
6:55 PM 19.4 °F - 10.4 °F 68% 30.04 in 10.0 mi Calm Calm - N/A   Clear
7:15 PM 17.6 °F - 5.0 °F 58% 30.04 in 10.0 mi Calm Calm - N/A   Clear
7:35 PM 17.6 °F - 8.6 °F 68% 30.04 in 10.0 mi North - - N/A   Clear
7:55 PM 15.8 °F - 8.6 °F 73% 30.04 in 10.0 mi Calm Calm - N/A   Clear
8:15 PM 12.2 °F 6.1 °F 3.2 °F 67% 30.04 in 10.0 mi NE 3.5 mph - N/A   Clear
8:35 PM 15.8 °F - 5.0 °F 62% 30.05 in 10.0 mi Calm Calm - N/A   Clear
8:55 PM 14.0 °F - 8.6 °F 79% 30.04 in 10.0 mi Calm Calm - N/A   Clear
9:15 PM 8.6 °F - -2.2 °F 62% 30.04 in 10.0 mi Calm Calm - N/A   Clear
9:35 PM 12.2 °F 6.1 °F 10.4 °F 92% 30.04 in 10.0 mi NNE 3.5 mph - N/A   Clear
9:55 PM 12.2 °F - 5.0 °F 73% 30.04 in 10.0 mi Calm Calm - N/A   Clear
10:15 PM 10.4 °F - 1.4 °F 67% 30.05 in 9.0 mi Calm Calm - N/A   Clear
10:35 PM 8.6 °F - 3.2 °F 79% 30.04 in 9.0 mi Calm Calm - N/A   Clear
10:55 PM 8.6 °F - 1.4 °F 73% 30.04 in 10.0 mi Calm Calm - N/A   Clear
11:15 PM 8.6 °F 2.0 °F 1.4 °F 73% 30.05 in 8.0 mi North 3.5 mph - N/A   Clear
11:35 PM 6.8 °F - 3.2 °F 85% 30.06 in 10.0 mi Calm Calm - N/A   Clear
11:55 PM 6.8 °F - 1.4 °F 79% 30.06 in 10.0 mi Calm Calm - N/A   Clear